Terminal Aerodrome Forecast
Issued by NWS

Home | Current Version | Previous Version | Text Only | Print | Product List | Glossary On
Versions: 1 2 3 4 5 6 7 8 9 10 11 12 13 14 15 16 17 18 19 20 21 22 23 24 25 26 27 28 29 30 31 32 33 34 35 36 37 38 39 40
000
FTUS45 KBOU 030531
TAFBJC
TAF
KBJC 030531Z 0306/0406 VRB05KT P6SM FEW150
     FM031000 29007KT P6SM FEW110 SCT200
     FM031400 32007KT P6SM SCT080 BKN120
     FM031800 04007KT P6SM SCT080 BKN120
     FM032100 21008KT P6SM VCSH BKN080 PROB30 0321/0401 VRB20G30KT
      -TSRA BKN070CB
     FM040200 29010KT P6SM SCT080 BKN140=

USA.gov is the U.S. government's official web portal to all federal, state and local government web resources and services.